Wind_Speed
40 38 35 31 26 25 26 28 31 35 34 31 31 32 33 32 30 30 30 30 29 28 27 27 26 27 27 28 30 31 32 33 35 35 36 37 38 38
31 29 27 24 22 24 27 30 34 36 36 32 30 29 27 26 27 29 30 30 29 28 29 28 28 27 27 28 30 31 32 34 34 35 38 40 40 40
22 22 21 22 26 29 30 32 32 31 30 26 24 21 22 24 26 27 29 29 29 29 31 30 30 30 31 32 33 34 34 34 34 34 37 39 42 42
21 23 26 28 29 29 28 26 23 20 17 15 17 20 22 24 25 26 27 27 28 29 30 29 30 31 32 33 35 36 36 36 36 35 36 38 40 42
17 18 19 20 22 21 20 18 16 14 15 18 19 21 22 24 25 25 25 26 27 28 29 29 30 31 33 34 36 37 38 39 38 38 38 39 40 40
16 15 14 14 15 15 16 15 14 16 18 20 20 20 22 23 24 24 26 26 28 29 31 31 32 34 36 37 37 38 39 39 40 42 43 42 40 39
17 15 14 13 13 14 15 15 16 18 19 20 20 20 21 22 24 26 27 29 30 32 32 33 35 36 37 37 38 39 40 40 41 42 44 42 40 39
16 15 14 13 12 13 14 15 15 17 18 19 20 20 21 23 25 27 27 28 29 31 33 35 38 39 40 41 41 42 42 42 42 41 41 41 40 38
16 15 15 14 14 14 14 14 15 15 16 18 19 20 21 22 22 22 22 24 26 28 30 32 34 36 38 40 41 43 44 43 42 41 38 38 37 36
16 16 15 14 14 14 14 13 13 13 13 14 15 15 16 16 18 20 24 27 30 32 34 36 38 40 41 41 42 42 42 42 43 42 39 37 36 33
14 13 11 11 11 12 12 11 11 10 9 9 10 13 15 18 21 24 27 30 33 35 37 38 39 41 43 43 42 41 40 39 39 39 38 36 34 31
11 10 9 9 9 9 9 9 7 6 7 8 11 14 18 21 25 28 30 32 34 34 35 36 35 36 37 38 37 36 36 35 33 33 32 32 30 28
9 10 10 9 9 8 8 7 7 7 8 9 13 17 20 23 25 27 27 28 28 29 29 29 28 27 28 29 30 29 29 29 29 28 28 27 26 24
10 11 11 10 10 8 7 7 7 6 8 11 14 17 20 21 23 23 24 24 24 24 24 24 24 24 24 24 25 25 26 27 26 25 26 28 27 24
11 12 12 11 10 9 8 8 7 6 7 11 14 17 19 21 22 22 22 22 21 21 20 21 23 23 22 21 21 22 22 23 23 23 24 28 29 28
13 13 13 11 10 9 8 8 7 6 7 10 14 17 19 20 21 21 21 21 21 20 19 20 21 21 19 18 18 18 18 19 20 20 20 21 23 24
14 12 12 11 10 9 8 8 7 6 7 9 12 16 18 20 22 23 24 24 23 22 22 22 21 21 20 19 18 17 16 16 17 19 19 19 17 19
14 13 13 12 11 9 9 9 8 7 7 8 10 14 17 19 22 24 26 27 27 27 26 26 25 23 22 20 20 19 17 16 16 19 21 22 22 22
13 12 12 11 10 10 11 11 9 9 8 8 9 11 14 17 20 23 26 28 30 30 30 29 27 25 24 21 20 20 20 19 18 18 21 24 26 28
11 10 10 10 10 11 13 13 12 11 10 8 8 9 12 15 18 22 26 29 31 34 34 33 30 27 24 21 19 19 20 20 20 20 20 23 27 30
11 11 11 10 11 13 15 16 16 14 12 10 9 8 9 12 16 21 25 29 32 35 37 37 33 29 25 22 19 18 18 18 18 19 19 20 23 29
14 14 14 13 13 14 16 18 18 17 15 14 13 11 10 12 16 21 25 28 30 32 36 39 37 31 27 24 22 21 20 19 18 18 18 20 21 25
17 16 17 16 15 15 17 19 19 19 18 17 17 17 16 17 19 22 24 26 29 31 34 36 37 34 29 25 24 23 22 21 20 19 18 19 22 24
Wind_Direction
262 264 266 264 258 253 255 255 251 248 243 238 239 243 246 251 257 261 263 263 261 259 257 258 258 257 256 256 258 259 260 260 259 259 258 259 260 260
257 256 253 247 240 243 250 251 249 250 250 249 248 249 250 253 257 260 261 261 256 256 258 257 256 255 254 254 255 256 258 259 259 259 258 257 257 257
242 237 232 229 232 238 243 245 249 253 256 256 255 253 254 256 257 259 261 260 258 258 257 258 259 259 258 256 256 256 256 256 256 259 260 259 258 257
216 213 215 217 221 227 233 239 243 249 253 252 254 254 257 259 262 263 264 262 261 260 258 258 259 260 260 259 258 257 255 255 256 259 261 260 258 256
197 203 208 216 224 231 234 234 236 242 248 252 255 259 262 263 264 265 266 265 263 262 261 259 259 260 261 261 261 260 258 257 258 260 262 262 261 257
208 215 228 240 247 246 240 236 238 244 250 255 258 260 262 263 264 266 267 266 266 265 265 265 265 264 264 264 263 263 262 262 261 261 261 262 262 258
227 231 239 245 249 248 243 240 242 248 255 260 261 262 264 266 267 268 268 269 269 268 268 268 269 268 267 266 266 265 264 263 262 261 262 262 263 259
226 228 233 235 239 242 244 246 249 253 258 261 264 267 269 271 272 272 273 274 275 275 275 275 275 274 272 270 268 266 265 264 264 264 264 263 263 261
235 233 232 233 235 239 244 247 250 253 257 263 267 271 273 274 275 278 280 281 281 281 280 279 278 276 275 273 270 267 265 264 263 264 267 266 266 266
238 235 234 235 237 241 242 243 246 250 257 265 271 274 276 278 281 285 288 290 289 288 285 282 279 277 274 272 270 268 266 264 263 262 265 267 268 268
234 231 232 232 232 232 233 237 244 254 265 272 280 288 294 298 299 299 298 296 294 292 289 286 282 278 273 270 268 266 265 264 263 264 263 264 267 269
230 225 221 219 222 227 229 229 234 250 268 284 298 308 311 311 309 307 305 304 303 302 298 294 289 282 276 271 267 264 262 262 262 264 262 260 264 266
223 217 216 221 220 213 210 218 237 262 284 303 315 319 318 317 315 315 314 314 314 310 305 301 298 293 286 278 272 268 264 262 262 262 257 251 252 254
208 211 218 214 203 204 219 240 259 288 312 324 327 328 330 331 331 330 330 329 325 318 310 304 302 300 295 286 279 273 267 262 260 257 252 244 239 242
207 207 205 202 209 224 238 245 262 291 316 329 335 340 342 344 344 343 341 338 332 324 314 306 304 304 301 293 288 283 275 265 259 255 251 246 240 240
210 201 202 212 227 234 233 241 255 276 313 337 346 350 352 353 354 353 351 347 341 332 322 314 311 313 313 309 304 299 291 276 264 254 249 246 240 233
212 210 217 225 231 231 233 242 256 285 320 338 350 357 359 0 3 5 2 357 351 342 332 323 318 314 313 313 312 308 303 291 270 253 243 236 227 223
214 218 223 228 232 235 236 243 262 287 310 329 351 0 2 6 10 11 10 7 2 354 344 335 325 317 309 303 303 304 304 299 282 259 246 236 225 215
218 224 229 232 237 241 242 245 256 271 289 317 347 0 3 6 10 12 12 10 6 1 355 347 337 326 315 307 299 297 297 298 293 276 256 244 235 225
224 228 230 231 238 245 247 244 246 258 275 300 331 353 1 3 4 5 4 3 1 359 357 354 348 339 329 318 309 301 297 295 293 286 272 254 243 237
235 236 236 237 243 250 250 245 244 251 266 285 303 325 344 350 351 351 351 351 352 353 355 355 352 345 338 331 326 319 310 302 296 290 283 271 255 244
245 243 240 240 246 252 251 246 242 247 258 273 287 296 309 322 330 334 336 339 343 347 351 353 354 350 341 333 329 327 322 315 306 297 289 281 272 258
249 249 246 243 248 254 252 248 244 247 256 267 278 285 291 300 311 319 326 332 338 341 345 348 351 351 347 339 331 326 323 321 319 312 300 286 276 269
Height
5729 5732 5734 5735 5737 5739 5741 5743 5746 5748 5748 5748 5750 5753 5756 5760 5763 5765 5767 5769 5770 5771 5772 5773 5774 5775 5776 5777 5778 5780 5781 5781 5782 5782 5783 5783 5784 5785
5720 5723 5725 5727 5729 5731 5733 5736 5738 5740 5740 5741 5743 5746 5749 5752 5755 5756 5758 5760 5761 5762 5763 5765 5766 5766 5767 5768 5769 5770 5771 5771 5771 5771 5772 5772 5773 5774
5712 5715 5717 5720 5723 5725 5727 5729 5730 5731 5733 5735 5737 5739 5742 5744 5747 5749 5750 5751 5752 5753 5754 5756 5756 5756 5758 5759 5760 5760 5760 5761 5761 5760 5761 5761 5761 5763
5707 5709 5711 5714 5715 5717 5719 5721 5723 5725 5727 5730 5731 5734 5736 5738 5740 5741 5742 5742 5743 5743 5744 5745 5746 5747 5748 5749 5749 5750 5750 5749 5749 5748 5748 5749 5749 5750
5703 5705 5707 5709 5710 5712 5714 5716 5718 5720 5722 5724 5726 5728 5730 5732 5733 5734 5734 5735 5734 5734 5734 5735 5735 5736 5737 5737 5737 5738 5738 5737 5737 5736 5737 5737 5737 5737
5698 5700 5702 5704 5706 5708 5710 5712 5714 5716 5717 5718 5720 5722 5723 5724 5725 5726 5727 5727 5727 5727 5726 5725 5725 5725 5725 5725 5724 5724 5724 5724 5724 5725 5725 5725 5724 5724
5694 5696 5697 5700 5702 5705 5707 5709 5711 5712 5714 5715 5716 5717 5717 5718 5718 5719 5719 5718 5718 5717 5716 5716 5715 5714 5713 5712 5711 5711 5711 5711 5711 5712 5712 5711 5710 5709
5690 5692 5694 5696 5698 5701 5704 5706 5707 5709 5709 5711 5711 5712 5712 5711 5711 5711 5710 5709 5708 5707 5706 5705 5703 5702 5701 5700 5699 5698 5698 5698 5699 5699 5698 5698 5697 5696
5687 5689 5690 5693 5695 5698 5700 5702 5703 5704 5706 5706 5706 5706 5706 5704 5704 5703 5702 5700 5698 5696 5695 5693 5691 5690 5689 5687 5686 5686 5685 5685 5686 5686 5685 5685 5684 5682
5684 5686 5688 5690 5692 5694 5696 5698 5699 5700 5701 5700 5700 5700 5699 5698 5697 5696 5694 5691 5689 5686 5684 5682 5679 5677 5675 5674 5673 5673 5672 5671 5671 5671 5671 5671 5671 5669
5681 5683 5685 5687 5689 5691 5692 5694 5695 5695 5695 5695 5695 5694 5693 5692 5690 5688 5685 5682 5679 5675 5671 5668 5665 5662 5660 5659 5658 5658 5658 5657 5657 5657 5658 5659 5658 5657
5679 5680 5682 5684 5686 5687 5689 5690 5691 5691 5691 5691 5690 5689 5687 5685 5683 5679 5675 5671 5667 5662 5657 5654 5651 5648 5645 5644 5643 5643 5644 5644 5645 5645 5646 5647 5647 5647
5676 5678 5680 5682 5683 5684 5685 5687 5687 5688 5688 5687 5686 5684 5681 5678 5675 5671 5666 5662 5657 5652 5647 5644 5640 5637 5634 5633 5631 5631 5632 5632 5633 5634 5635 5636 5638 5639
5673 5675 5677 5679 5680 5681 5682 5683 5684 5684 5684 5683 5681 5679 5676 5672 5668 5663 5659 5654 5650 5645 5641 5637 5634 5631 5628 5625 5623 5622 5621 5622 5623 5624 5625 5627 5629 5630
5671 5672 5674 5676 5677 5678 5679 5679 5680 5680 5680 5679 5677 5674 5671 5667 5663 5658 5654 5649 5645 5640 5636 5632 5629 5625 5622 5619 5616 5615 5614 5613 5614 5615 5617 5618 5620 5623
5668 5669 5671 5673 5674 5675 5675 5676 5676 5677 5676 5675 5673 5670 5667 5663 5659 5654 5649 5645 5641 5636 5632 5628 5624 5621 5617 5614 5612 5609 5607 5606 5607 5608 5609 5611 5612 5615
5664 5666 5668 5670 5671 5671 5672 5673 5673 5673 5672 5671 5669 5667 5664 5660 5655 5650 5646 5642 5637 5633 5629 5625 5621 5618 5614 5611 5608 5605 5602 5601 5601 5601 5603 5605 5607 5609
5661 5663 5664 5666 5667 5667 5669 5669 5669 5670 5669 5668 5665 5663 5660 5657 5652 5648 5644 5640 5636 5631 5626 5621 5617 5613 5609 5606 5603 5600 5598 5596 5595 5595 5597 5599 5601 5603
5658 5659 5660 5661 5662 5663 5665 5665 5666 5666 5666 5665 5662 5659 5657 5654 5650 5647 5643 5639 5634 5630 5624 5618 5613 5607 5603 5600 5597 5595 5593 5591 5590 5590 5590 5592 5594 5596
5654 5655 5656 5657 5658 5659 5660 5661 5662 5663 5662 5661 5658 5656 5654 5651 5648 5645 5641 5637 5632 5627 5621 5615 5609 5604 5599 5595 5592 5590 5588 5586 5584 5583 5583 5585 5587 5589
5650 5651 5652 5654 5655 5656 5657 5658 5659 5659 5658 5657 5655 5653 5651 5649 5646 5643 5640 5635 5631 5625 5620 5614 5607 5602 5597 5593 5589 5586 5584 5582 5580 5578 5577 5578 5579 5582
5645 5647 5648 5649 5651 5652 5652 5653 5654 5655 5654 5653 5652 5650 5648 5646 5643 5641 5637 5633 5629 5624 5618 5612 5606 5600 5595 5591 5587 5583 5580 5578 5575 5574 5573 5572 5571 5573
5640 5641 5643 5644 5645 5647 5647 5648 5649 5649 5649 5648 5647 5646 5644 5642 5640 5637 5634 5630 5626 5621 5616 5610 5604 5598 5593 5588 5584 5580 5577 5573 5571 5569 5568 5566 5565 5564